| time (UTC) | temp F | wind direction | speed MPH | gust MPH | rain 1hr in | rain 24hr in | rain mn in | humidity % | barometer mb |
| 20260507014611 | 68 | 199 | 8.0 | 21.0 | 0.00 | 0.00 | 0.00 | 50 | 1021.4 |
| 20260507013036 | 69 | 202 | 7.0 | 16.0 | 0.00 | 0.00 | 0.00 | 49 | 1021.4 |
| 20260507011530 | 70 | 201 | 6.0 | 14.0 | 0.00 | 0.00 | 0.00 | 48 | 1021.5 |
| 20260507010108 | 70 | 203 | 7.0 | 14.0 | 0.00 | 0.00 | 0.00 | 48 | 1021.4 |
| 20260507004532 | 70 | 202 | 6.0 | 13.0 | 0.00 | 0.00 | 0.00 | 48 | 1021.3 |
| 20260507003033 | 70 | 193 | 6.0 | 15.0 | 0.00 | 0.00 | 0.00 | 46 | 1021.2 |
| 20260507000032 | 71 | 200 | 8.0 | 17.0 | 0.00 | 0.00 | 0.00 | 44 | 1020.9 |
| 20260506234532 | 71 | 202 | 7.0 | 16.0 | 0.00 | 0.00 | 0.00 | 43 | 1020.9 |
| 20260506230038 | 74 | 209 | 8.0 | 16.0 | 0.00 | 0.00 | 0.00 | 40 | 1020.7 |
| 20260506224535 | 74 | 192 | 6.0 | 16.0 | 0.00 | 0.00 | 0.00 | 43 | 1020.7 |
| 20260506223037 | 74 | 194 | 8.0 | 17.0 | 0.00 | 0.00 | 0.00 | 44 | 1020.9 |
| 20260506220036 | 75 | 193 | 6.0 | 13.0 | 0.00 | 0.00 | 0.00 | 43 | 1021.1 |
| 20260506214537 | 74 | 188 | 6.0 | 16.0 | 0.00 | 0.00 | 0.00 | 44 | 1021.1 |
| 20260506211535 | 73 | 204 | 6.0 | 14.0 | 0.00 | 0.00 | 0.00 | 46 | 1021.1 |
| 20260506204531 | 72 | 209 | 10.0 | 28.0 | 0.00 | 0.00 | 0.00 | 48 | 1021.2 |
| 20260506203033 | 72 | 210 | 8.0 | 18.0 | 0.00 | 0.00 | 0.00 | 49 | 1021.2 |
| 20260506201606 | 72 | 220 | 7.0 | 19.0 | 0.00 | 0.00 | 0.00 | 49 | 1021.2 |
| 20260506200106 | 71 | 208 | 7.0 | 18.0 | 0.00 | 0.00 | 0.00 | 50 | 1021.1 |
| 20260506194533 | 71 | 218 | 7.0 | 18.0 | 0.00 | 0.00 | 0.00 | 51 | 1021.2 |
| 20260506193035 | 70 | 205 | 7.0 | 16.0 | 0.00 | 0.00 | 0.00 | 52 | 1021.2 |
| 20260506191531 | 70 | 205 | 9.0 | 18.0 | 0.00 | 0.00 | 0.00 | 53 | 1021.2 |
| 20260506190032 | 69 | 222 | 9.0 | 21.0 | 0.00 | 0.00 | 0.00 | 54 | 1021.3 |
| 20260506184535 | 68 | 196 | 10.0 | 22.0 | 0.00 | 0.00 | 0.00 | 56 | 1021.2 |
| 20260506183028 | 68 | 200 | 7.0 | 15.0 | 0.00 | 0.00 | 0.00 | 57 | 1021.1 |
| 20260506181535 | 68 | 198 | 7.0 | 17.0 | 0.00 | 0.00 | 0.00 | 57 | 1021.4 |
| 20260506174606 | 68 | 247 | 6.0 | 15.0 | 0.00 | 0.00 | 0.00 | 58 | 1021.4 |
| 20260506173108 | 66 | 209 | 7.0 | 16.0 | 0.00 | 0.00 | 0.00 | 59 | 1021.2 |
| 20260506171535 | 65 | 185 | 8.0 | 26.0 | 0.00 | 0.00 | 0.00 | 62 | 1021.2 |
| 20260506170032 | 64 | 185 | 9.0 | 26.0 | 0.00 | 0.00 | 0.00 | 63 | 1021.4 |
| 20260506164535 | 63 | 196 | 9.0 | 23.0 | 0.00 | 0.00 | 0.00 | 63 | 1021.5 |
| 20260506163036 | 64 | 196 | 9.0 | 30.0 | 0.00 | 0.00 | 0.00 | 63 | 1021.8 |
| 20260506161534 | 64 | 211 | 9.0 | 22.0 | 0.00 | 0.00 | 0.00 | 63 | 1022.0 |
| 20260506160118 | 64 | 216 | 9.0 | 22.0 | 0.00 | 0.00 | 0.00 | 63 | 1021.8 |
| 20260506154532 | 63 | 206 | 8.0 | 26.0 | 0.00 | 0.00 | 0.00 | 63 | 1021.7 |
| 20260506153034 | 63 | 204 | 11.0 | 39.0 | 0.00 | 0.00 | 0.00 | 65 | 1021.7 |
| 20260506151643 | 62 | 186 | 6.0 | 16.0 | 0.00 | 0.00 | 0.00 | 66 | 1021.5 |
| 20260506144535 | 60 | 179 | 5.0 | 14.0 | 0.00 | 0.00 | 0.00 | 69 | 1021.6 |
| 20260506143029 | 59 | 175 | 6.0 | 11.0 | 0.00 | 0.00 | 0.00 | 73 | 1021.7 |
| 20260506141535 | 56 | 155 | 4.0 | 11.0 | 0.00 | 0.00 | 0.00 | 78 | 1021.6 |
| 20260506140043 | 55 | 138 | 4.0 | 13.0 | 0.00 | 0.00 | 0.00 | 79 | 1021.6 |
| 20260506134536 | 55 | 152 | 1.0 | 7.0 | 0.00 | 0.00 | 0.00 | 78 | 1021.4 |
| 20260506133141 | 55 | 154 | 3.0 | 27.0 | 0.00 | 0.00 | 0.00 | 78 | 1021.4 |
| 20260506131537 | 56 | 153 | 3.0 | 9.0 | 0.00 | 0.00 | 0.00 | 77 | 1021.3 |
| 20260506130028 | 55 | 181 | 4.0 | 13.0 | 0.00 | 0.00 | 0.00 | 77 | 1021.3 |
| 20260506124532 | 56 | 177 | 5.0 | 15.0 | 0.00 | 0.00 | 0.00 | 77 | 1021.1 |
| 20260506123107 | 56 | 194 | 5.0 | 11.0 | 0.00 | 0.00 | 0.00 | 77 | 1020.9 |
| 20260506121531 | 56 | 198 | 6.0 | 12.0 | 0.00 | 0.00 | 0.00 | 77 | 1020.7 |
| 20260506120038 | 55 | 188 | 7.0 | 22.0 | 0.00 | 0.00 | 0.00 | 78 | 1020.5 |
| 20260506114642 | 55 | 169 | 4.0 | 17.0 | 0.00 | 0.00 | 0.00 | 79 | 1020.3 |
| 20260506113033 | 55 | 158 | 6.0 | 12.0 | 0.00 | 0.00 | 0.00 | 79 | 1020.2 |
| 20260506111535 | 55 | 152 | 4.0 | 10.0 | 0.00 | 0.00 | 0.00 | 79 | 1020.1 |
| 20260506104530 | 55 | 158 | 4.0 | 11.0 | 0.00 | 0.00 | 0.00 | 78 | 1019.8 |
| 20260506103109 | 56 | 162 | 6.0 | 13.0 | 0.00 | 0.00 | 0.00 | 76 | 1019.7 |
| 20260506101605 | 57 | 183 | 7.0 | 18.0 | 0.00 | 0.00 | 0.00 | 76 | 1019.6 |
| 20260506100055 | 57 | 189 | 8.0 | 16.0 | 0.00 | 0.00 | 0.00 | 76 | 1019.6 |
| 20260506094537 | 56 | 193 | 7.0 | 18.0 | 0.00 | 0.00 | 0.00 | 80 | 1019.6 |
| 20260506093036 | 54 | 204 | 7.0 | 14.0 | 0.00 | 0.00 | 0.00 | 87 | 1019.5 |
| 20260506090038 | 49 | 258 | 1.0 | 4.0 | 0.00 | 0.00 | 0.00 | 92 | 1019.2 |
| 20260506083033 | 49 | 253 | 1.0 | 5.0 | 0.00 | 0.00 | 0.00 | 91 | 1019.0 |
| 20260506073038 | 53 | 270 | 2.0 | 11.0 | 0.00 | 0.00 | 0.00 | 85 | 1018.7 |
| 20260506071535 | 55 | 192 | 2.0 | 9.0 | 0.00 | 0.00 | 0.00 | 82 | 1018.6 |
| 20260506070107 | 56 | 165 | 2.0 | 9.0 | 0.00 | 0.00 | 0.00 | 82 | 1018.4 |
| 20260506044535 | 56 | 292 | 0.0 | 2.0 | 0.00 | 0.00 | 0.00 | 80 | 1017.4 |
| 20260506041531 | 58 | 261 | 0.0 | 3.0 | 0.00 | 0.00 | 0.00 | 76 | 1017.2 |
| 20260506040039 | 59 | 302 | 3.0 | 6.0 | 0.00 | 0.00 | 0.00 | 74 | 1016.9 |
| 20260506034607 | 60 | 280 | 4.0 | 7.0 | 0.00 | 0.00 | 0.00 | 73 | 1016.7 |
| 20260506033034 | 61 | 291 | 2.0 | 6.0 | 0.00 | 0.00 | 0.00 | 71 | 1016.4 |
| 20260506031531 | 62 | 171 | 2.0 | 8.0 | 0.00 | 0.00 | 0.00 | 68 | 1016.2 |
| 20260506030037 | 64 | 259 | 3.0 | 7.0 | 0.00 | 0.00 | 0.00 | 65 | 1016.0 |
| 20260506024535 | 66 | 320 | 7.0 | 15.0 | 0.00 | 0.00 | 0.00 | 62 | 1015.7 |
| 20260506021609 | 0 | 0 | 0.0 | 0.0 | 0.00 | 0.00 | 0.00 | 100 | |
| 20260506020107 | 70 | 329 | 6.0 | 14.0 | 0.00 | 0.00 | 0.00 | 57 | 1015.3 |